EW9431 Weather Reports


time (UTC)temp
C
wind
direction
speed
KPH
gust
KPH
rain 1hr
cm
rain 24hr
cm
rain mn
cm
humidity
%
barometer
mb
20260503182007 22 203 6.4 11.3 0.00 0.00 0.00 44 1014.0
20260503181505 22 139 4.8 14.5 0.00 0.00 0.00 44 1014.0
20260503181003 22 172 4.8 14.5 0.00 0.00 0.00 46 1014.0
20260503180501 22 172 4.8 11.3 0.00 0.00 0.00 44 1013.9
20260503180005 22 199 3.2 11.3 0.00 0.00 0.00 46 1014.0
20260503175600 22 157 6.4 12.9 0.00 0.00 0.00 47 1014.0
20260503175058 21 167 3.2 11.3 0.00 0.00 0.00 47 1014.1
20260503174559 21 205 3.2 11.3 0.00 0.00 0.00 46 1014.1
20260503174056 21 187 3.2 11.3 0.00 0.00 0.00 48 1014.1
20260503173554 20 146 4.8 11.3 0.00 0.00 0.00 49 1014.1
20260503173058 20 233 4.8 9.7 0.00 0.00 0.00 50 1014.1
20260503172551 20 232 1.6 9.7 0.00 0.00 0.00 52 1014.1
20260503172050 20 199 3.2 9.7 0.00 0.00 0.00 53 1014.2
20260503171550 20 205 1.6 6.4 0.00 0.00 0.00 53 1014.2
20260503171048 20 213 3.2 6.4 0.00 0.00 0.00 54 1014.2
20260503170546 19 219 1.6 9.7 0.00 0.00 0.00 55 1014.2
20260503150514 13 175 0.0 3.2 0.00 0.00 0.00 67 1014.8
20260503131058 13 351 0.0 3.2 0.00 0.00 0.00 63 1014.5
20260503130557 13 338 0.0 8.0 0.00 0.00 0.00 63 1014.4
20260503110545 13 5 3.2 9.7 0.00 0.00 0.00 59 1014.6
20260503110144 13 30 4.8 9.7 0.00 0.00 0.00 58 1014.6
20260503081513 17 24 8.0 14.5 0.00 0.00 0.00 44 1014.4
20260503081012 17 330 6.4 14.5 0.00 0.00 0.00 44 1014.3
20260503080512 17 20 6.4 19.3 0.00 0.00 0.00 44 1014.2
20260503072509 17 343 6.4 17.7 0.00 0.00 0.00 46 1014.3
20260503072006 17 20 6.4 17.7 0.00 0.00 0.00 45 1014.2
20260503071505 17 10 9.7 17.7 0.00 0.00 0.00 45 1014.2
20260503071003 17 16 9.7 16.1 0.00 0.00 0.00 46 1014.2
20260503070502 18 300 6.4 16.1 0.00 0.00 0.00 45 1014.2
20260503055056 20 309 8.0 25.7 0.00 0.00 0.00 41 1013.8
20260503054611 20 334 11.3 25.7 0.00 0.00 0.00 41 1013.7
20260503054056 19 350 14.5 24.1 0.00 0.00 0.00 41 1013.7
20260503053555 19 360 12.9 22.5 0.00 0.00 0.00 42 1013.7
20260503053055 19 334 11.3 22.5 0.00 0.00 0.00 43 1013.7
20260503052555 19 10 11.3 22.5 0.00 0.00 0.00 43 1013.7
20260503052054 19 5 11.3 22.5 0.00 0.00 0.00 43 1013.7
20260503051553 19 18 12.9 20.9 0.00 0.00 0.00 44 1013.7
20260503051053 19 341 9.7 22.5 0.00 0.00 0.00 44 1013.7
20260503050552 19 5 12.9 22.5 0.00 0.00 0.00 44 1013.7
20260503050052 19 29 11.3 19.3 0.00 0.00 0.00 45 1013.7
20260503045551 20 19 11.3 24.1 0.00 0.00 0.00 45 1013.6
20260503045051 20 20 11.3 24.1 0.00 0.00 0.00 45 1013.7
20260503044552 20 33 12.9 20.9 0.00 0.00 0.00 45 1013.7
20260503044052 20 360 9.7 22.5 0.00 0.00 0.00 45 1013.7
20260503043551 20 5 9.7 22.5 0.00 0.00 0.00 45 1013.7
20260503043055 20 10 11.3 20.9 0.00 0.00 0.00 45 1013.6
20260503042552 20 5 11.3 17.7 0.00 0.00 0.00 45 1013.6
20260503042050 20 27 8.0 17.7 0.00 0.00 0.00 44 1013.6
20260503041550 20 10 8.0 16.1 0.00 0.00 0.00 45 1013.5
20260503041053 20 10 6.4 17.7 0.00 0.00 0.00 45 1013.5
20260503040548 20 14 9.7 17.7 0.00 0.00 0.00 46 1013.5
20260503040049 20 16 8.0 19.3 0.00 0.00 0.00 47 1013.4
20260503035545 19 14 8.0 19.3 0.00 0.00 0.00 48 1013.4
20260503035045 19 5 6.4 14.5 0.00 0.00 0.00 50 1013.3
20260503034548 20 350 4.8 12.9 0.00 0.00 0.00 51 1013.3
20260503034044 20 360 4.8 12.9 0.00 0.00 0.00 51 1013.2
20260503033543 20 31 4.8 12.9 0.00 0.00 0.00 55 1013.2
20260503033043 20 45 3.2 4.8 0.00 0.00 0.00 57 1013.1
20260503032543 20 40 1.6 4.8 0.00 0.00 0.00 60 1013.1
20260503032043 20 327 0.0 3.2 0.00 0.00 0.00 60 1013.1
20260503031543 21 327 0.0 3.2 0.00 0.00 0.00 60 1013.1
20260503031043 21 327 0.0 3.2 0.00 0.00 0.00 59 1013.0
20260503030543 21 327 0.0 3.2 0.00 0.00 0.00 58 1013.0
20260503030041 21 271 0.0 3.2 0.00 0.00 0.00 57 1013.0
20260503025541 22 271 0.0 3.2 0.00 0.00 0.00 56 1012.9
20260503025040 22 271 0.0 3.2 0.00 0.00 0.00 56 1012.9
20260503024541 23 271 0.0 1.6 0.00 0.00 0.00 52 1012.9
20260503024040 23 271 0.0 3.2 0.00 0.00 0.00 50 1012.9
20260503023540 23 271 0.0 3.2 0.00 0.00 0.00 49 1012.9
20260503023043 24 271 0.0 3.2 0.00 0.00 0.00 47 1012.9
20260503022539 25 271 0.0 4.8 0.00 0.00 0.00 47 1012.9
20260503022038 25 250 1.6 4.8 0.00 0.00 0.00 47 1012.9
20260503021538 25 221 1.6 6.4 0.00 0.00 0.00 47 1012.9
20260503021038 25 216 3.2 6.4 0.00 0.00 0.00 47 1012.8
20260503020538 25 213 1.6 6.4 0.00 0.00 0.00 47 1012.8
20260503020037 25 205 3.2 6.4 0.00 0.00 0.00 47 1012.9
20260503015539 25 240 1.6 4.8 0.00 0.00 0.00 47 1013.0
20260503015037 25 255 0.0 6.4 0.00 0.00 0.00 47 1013.1
20260503014535 25 212 3.2 6.4 0.00 0.00 0.00 46 1013.1
20260503014034 25 199 1.6 8.0 0.00 0.00 0.00 46 1013.1
20260503013533 26 212 3.2 8.0 0.00 0.00 0.00 44 1013.2
20260503013039 26 197 3.2 8.0 0.00 0.00 0.00 43 1013.2
20260503012532 25 220 3.2 6.4 0.00 0.00 0.00 43 1013.2
20260503012031 25 203 3.2 6.4 0.00 0.00 0.00 44 1013.3
20260503011530 25 231 3.2 6.4 0.00 0.00 0.00 45 1013.3
20260503011029 25 211 1.6 8.0 0.00 0.00 0.00 45 1013.3
20260503010528 25 187 0.0 8.0 0.00 0.00 0.00 42 1013.3
20260503010028 25 205 4.8 9.7 0.00 0.00 0.00 46 1013.3
20260503005530 25 222 4.8 11.3 0.00 0.00 0.00 44 1013.3
20260503005030 25 193 6.4 11.3 0.00 0.00 0.00 47 1013.3
20260503004534 25 202 4.8 8.0 0.00 0.00 0.00 46 1013.4
20260503004024 25 193 1.6 8.0 0.00 0.00 0.00 46 1013.4
20260503003523 25 151 1.6 8.0 0.00 0.00 0.00 42 1013.5
20260503003027 25 193 4.8 8.0 0.00 0.00 0.00 47 1013.5
20260503002522 25 251 1.6 8.0 0.00 0.00 0.00 47 1013.5
20260503002021 25 228 1.6 8.0 0.00 0.00 0.00 48 1013.6
20260503001520 25 201 4.8 11.3 0.00 0.00 0.00 49 1013.7
20260503001020 25 176 4.8 12.9 0.00 0.00 0.00 48 1013.7
20260503000523 25 183 6.4 12.9 0.00 0.00 0.00 48 1013.8
20260503000024 25 190 3.2 11.3 0.00 0.00 0.00 46 1013.9
20260502235518 25 158 4.8 9.7 0.00 0.00 0.00 47 1013.9
20260502235017 25 226 4.8 9.7 0.00 0.00 0.00 46 1013.9
20260502234518 25 221 4.8 11.3 0.00 0.00 0.00 47 1013.9
20260502234015 25 210 3.2 9.7 0.00 0.00 0.00 46 1014.0
20260502233513 25 208 4.8 11.3 0.00 0.00 0.00 45 1014.1
20260502233027 25 170 4.8 11.3 0.00 0.00 0.00 44 1014.2
20260502232513 25 193 4.8 9.7 0.00 0.00 0.00 45 1014.2
20260502232013 24 227 4.8 9.7 0.00 0.00 0.00 44 1014.2
20260502231512 24 102 3.2 9.7 0.00 0.00 0.00 45 1014.3
20260502231011 24 160 4.8 9.7 0.00 0.00 0.00 44 1014.4
20260502230511 24 210 1.6 6.4 0.00 0.00 0.00 46 1014.4
20260502230009 24 283 1.6 9.7 0.00 0.00 0.00 47 1014.5
20260502225508 24 247 3.2 9.7 0.00 0.00 0.00 44 1014.6
20260502225008 24 210 4.8 11.3 0.00 0.00 0.00 44 1014.6
20260502224507 24 158 3.2 11.3 0.00 0.00 0.00 47 1014.7
20260502224008 24 293 3.2 9.7 0.00 0.00 0.00 47 1014.8
20260502223505 24 219 3.2 9.7 0.00 0.00 0.00 49 1014.8
20260502223003 24 154 4.8 11.3 0.00 0.00 0.00 49 1014.9
20260502222503 24 181 4.8 9.7 0.00 0.00 0.00 49 1015.0
20260502222002 24 213 3.2 9.7 0.00 0.00 0.00 49 1015.0
20260502221600 23 226 1.6 12.9 0.00 0.00 0.00 50 1015.1
20260502221059 23 204 3.2 12.9 0.00 0.00 0.00 50 1015.1
20260502220558 23 205 4.8 11.3 0.00 0.00 0.00 53 1015.2
20260502220057 23 228 1.6 6.4 0.00 0.00 0.00 51 1015.3
20260502215556 23 160 1.6 11.3 0.00 0.00 0.00 52 1015.3
20260502215055 22 203 3.2 11.3 0.00 0.00 0.00 53 1015.4
20260502214558 22 268 4.8 9.7 0.00 0.00 0.00 54 1015.5
20260502214051 22 181 4.8 8.0 0.00 0.00 0.00 55 1015.5
20260502213552 22 203 4.8 9.7 0.00 0.00 0.00 55 1015.6
20260502213049 21 161 4.8 9.7 0.00 0.00 0.00 55 1015.7
20260502212549 21 240 3.2 9.7 0.00 0.00 0.00 57 1015.7
20260502212048 21 220 4.8 9.7 0.00 0.00 0.00 55 1015.7
20260502211549 21 162 4.8 11.3 0.00 0.00 0.00 56 1015.8
20260502211049 21 219 6.4 11.3 0.00 0.00 0.00 57 1015.9
20260502210546 21 196 6.4 11.3 0.00 0.00 0.00 55 1015.9
20260502210053 21 204 3.2 11.3 0.00 0.00 0.00 56 1016.0
20260502205547 21 222 6.4 11.3 0.00 0.00 0.00 56 1016.0
20260502205046 21 218 3.2 12.9 0.00 0.00 0.00 55 1016.1
20260502204553 21 198 6.4 11.3 0.00 0.00 0.00 53 1016.1
20260502204045 21 204 4.8 11.3 0.00 0.00 0.00 52 1016.2
20260502203546 21 165 6.4 12.9 0.00 0.00 0.00 52 1016.3
20260502203049 21 210 6.4 12.9 0.00 0.00 0.00 52 1016.3
20260502202544 21 205 4.8 11.3 0.00 0.00 0.00 52 1016.4
20260502202048 21 216 6.4 9.7 0.00 0.00 0.00 51 1016.5
20260502201544 21 210 6.4 12.9 0.00 0.00 0.00 52 1016.5
20260502201043 21 168 8.0 12.9 0.00 0.00 0.00 52 1016.6
20260502200543 21 179 6.4 11.3 0.00 0.00 0.00 53 1016.6
20260502200047 21 218 6.4 11.3 0.00 0.00 0.00 53 1016.7
20260502195540 21 172 4.8 11.3 0.00 0.00 0.00 53 1016.8
20260502195039 21 213 3.2 11.3 0.00 0.00 0.00 54 1016.8
20260502194539 21 167 4.8 11.3 0.00 0.00 0.00 54 1016.9
20260502194038 21 199 4.8 11.3 0.00 0.00 0.00 54 1016.9
20260502193537 21 235 3.2 11.3 0.00 0.00 0.00 55 1016.9
20260502193039 21 207 4.8 11.3 0.00 0.00 0.00 55 1016.9
20260502192535 21 201 4.8 9.7 0.00 0.00 0.00 55 1016.9
20260502192034 21 230 3.2 9.7 0.00 0.00 0.00 55 1016.9
20260502191533 21 164 4.8 9.7 0.00 0.00 0.00 57 1017.0
20260502191033 20 170 3.2 11.3 0.00 0.00 0.00 58 1017.0
20260502190532 20 214 6.4 12.9 0.00 0.00 0.00 56 1017.0
20260502190041 20 191 6.4 12.9 0.00 0.00 0.00 57 1017.1
20260502185529 20 213 6.4 11.3 0.00 0.00 0.00 57 1017.1
20260502185029 20 266 3.2 14.5 0.00 0.00 0.00 58 1017.1
20260502184528 20 193 6.4 14.5 0.00 0.00 0.00 57 1017.1
20260502184026 20 196 6.4 14.5 0.00 0.00 0.00 58 1017.1
20260502183525 20 216 6.4 14.5 0.00 0.00 0.00 57 1017.1
20260502183024 20 211 4.8 9.7 0.00 0.00 0.00 57 1017.0
20260502182523 20 211 1.6 11.3 0.00 0.00 0.00 58 1017.0
20260502182021 20 148 3.2 11.3 0.00 0.00 0.00 60 1017.1